Fort Atkinson, Wisconsin, United States (53538)
Lat: 42.93N, Lon: 88.84W
Wx Zone: WIZ064
Local Info
Past Weather Observations for Today

NOTE: This archive is for the closest National Weather Service station to Fort Atkinson. Information may differ from the station used for current weather conditions.

Click here for Long-term Archive

Time Weather Temperature Dewpoint Humidity Pressure Winds Precip Visibility
12:35
Clear
75°F / 24°C 68°F / 20°C 78% 30.21 in
(1023 mb)
Calm - 10SM
12:15
Partly Cloudy
75°F / 24°C 70°F / 21°C 83% 30.21 in
(1023 mb)
Calm - 10SM
11:55
Mostly Cloudy
73°F / 23°C 68°F / 20°C 83% 30.24 in
(1024 mb)
Calm - 10SM
11:35
Partly Cloudy
72°F / 22°C 70°F / 21°C 94% 30.24 in
(1024 mb)
Calm - 10SM
11:15
Mostly Cloudy
72°F / 22°C 68°F / 20°C 88% 30.24 in
(1024 mb)
Calm - 10SM
10:55
Overcast
70°F / 21°C 68°F / 20°C 94% 30.24 in
(1024 mb)
ESE 3.5 mph
(ESE 6 kph)
- 10SM
10:35
Overcast
68°F / 20°C 68°F / 20°C 100% 30.24 in
(1024 mb)
E 3.5 mph
(E 6 kph)
- 10SM
10:15
Overcast
66°F / 19°C 66°F / 19°C 100% 30.24 in
(1024 mb)
N 4.6 mph
(N 7 kph)
- 10SM
09:55
Overcast
66°F / 19°C 66°F / 19°C 100% 30.24 in
(1024 mb)
NE 4.6 mph
(NE 7 kph)
- 10SM
09:35
Overcast
66°F / 19°C 66°F / 19°C 100% 30.24 in
(1024 mb)
ENE 4.6 mph
(ENE 7 kph)
- 7SM
09:15
Overcast
Fog And Mist
64°F / 18°C 64°F / 18°C 100% 30.24 in
(1024 mb)
Calm - 5SM
08:55
Overcast
Fog And Mist
64°F / 18°C 64°F / 18°C 100% 30.24 in
(1024 mb)
Calm - 2 1/2SM
07:55
Overcast
Fog
64°F / 18°C 64°F / 18°C 100% 30.24 in
(1024 mb)
NNE 4.6 mph
(NNE 7 kph)
- 1/4SM
07:35
Overcast
Fog
63°F / 17°C 63°F / 17°C 100% 30.21 in
(1023 mb)
Calm - 1/4SM
07:15
Overcast
Fog And Mist
63°F / 17°C 63°F / 17°C 100% 30.21 in
(1023 mb)
Calm - 3/4SM
06:55
Overcast
Fog
63°F / 17°C 63°F / 17°C 100% 30.21 in
(1023 mb)
NE 3.5 mph
(NE 6 kph)
- 1/4SM
06:35
Overcast
Fog
63°F / 17°C 63°F / 17°C 100% 30.21 in
(1023 mb)
Calm - 1/4SM
06:15
Overcast
Fog
63°F / 17°C 63°F / 17°C 100% 30.18 in
(1022 mb)
Calm - M1/4SM
05:55
Overcast
Fog
63°F / 17°C 63°F / 17°C 100% 30.18 in
(1022 mb)
Calm - M1/4SM
05:35
Overcast
Fog
63°F / 17°C 63°F / 17°C 100% 30.18 in
(1022 mb)
ENE 3.5 mph
(ENE 6 kph)
- M1/4SM
05:15
Overcast
Fog
63°F / 17°C 63°F / 17°C 100% 30.15 in
(1021 mb)
Calm - 1/4SM
04:55
Overcast
Fog
63°F / 17°C 63°F / 17°C 100% 30.15 in
(1021 mb)
Calm - 1/4SM
04:35
Overcast
Fog
63°F / 17°C 63°F / 17°C 100% 30.15 in
(1021 mb)
Calm - 1/4SM
04:15
Overcast
Fog
63°F / 17°C 63°F / 17°C 100% 30.15 in
(1021 mb)
Calm - 1/4SM
03:55
Overcast
Fog
63°F / 17°C 63°F / 17°C 100% 30.15 in
(1021 mb)
Calm - 1/4SM
03:35
Overcast
Fog
63°F / 17°C 63°F / 17°C 100% 30.15 in
(1021 mb)
Calm - 1/4SM
03:15
Overcast
Fog
63°F / 17°C 63°F / 17°C 100% 30.15 in
(1021 mb)
Calm - 1/4SM
02:55
Overcast
Fog
63°F / 17°C 63°F / 17°C 100% 30.15 in
(1021 mb)
Calm - 1/4SM
02:35
Overcast
Fog
63°F / 17°C 63°F / 17°C 100% 30.15 in
(1021 mb)
Calm - 1/4SM
02:15
Overcast
Fog
63°F / 17°C 63°F / 17°C 100% 30.12 in
(1020 mb)
Calm - 1/4SM
01:55
Overcast
Fog
63°F / 17°C 63°F / 17°C 100% 30.12 in
(1020 mb)
Calm - 1/4SM
01:35
Overcast
Fog
63°F / 17°C 63°F / 17°C 100% 30.12 in
(1020 mb)
Calm - 1/2SM
01:15
Overcast
Fog
63°F / 17°C 63°F / 17°C 100% 30.12 in
(1020 mb)
Calm - 1/2SM
00:55
Overcast
Fog
64°F / 18°C 64°F / 18°C 100% 30.12 in
(1020 mb)
Calm - 1/4SM
00:35
Overcast
Fog
64°F / 18°C 64°F / 18°C 100% 30.12 in
(1020 mb)
Calm - 1/2SM
00:15
Overcast
Fog And Mist
64°F / 18°C 64°F / 18°C 100% 30.09 in
(1019 mb)
Calm - 3/4SM
Time Weather Temperature Dewpoint Humidity Pressure Winds Precip Visibility


Weather for websites

WeatherForYou.com, LLC is not responsible for any damages or problems caused by this service. Current weather conditions are obtained from the closest station including government and personal stations which may have varying degrees of accuracy. Weather forecasts are derived from the NOAA NDFD. Like all things, this site belongs to Jesus Christ... He just trusts us to maintain it. If you have any questions or comments email webmaster@weatherforyou.com

Copyright © 2016, WeatherForYou.com LLC. All rights reserved.